Været på Ålesund Lufhavn, Vigra (ENAL)

 

Time for time, neste 48 timer:

Detaljert varsel fra yr.no - 48 timer

Vindprognose for Breisundet:

Vindvarsel

Upper Winds 3000 fot akkurat nå:

ENAL akkurat nå:

  • METAR: 041750Z 13012KT CAVOK 03/M03 Q0999
  • TAF: TAF 041700Z 0418/0421 13010KT 9999 FEW040 SCT060